Hourly Data Report for July 23, 2004

TORONTO CITY
ONTARIO

43°40'00.000" N
79°24'00.000" W
112.50 m
6158355
71508
XTO

Download Data

Hourly Data (July 2004)
Hourly Data Report for July 23, 2004
TIME
LST
Temp Definition
°C
Dew Point Definition
°C
Rel Hum Definition
%
Precip. Amount Definition
mm

Wind Dir Definition
10's deg

Wind Spd Definition
km/h
Visibility Definition
km
Stn Press Definition
kPa
Hmdx Definition


Wind Chill Definition


Weather Definition


00:00 23.0 20.2 84   LegendMM LegendMM LegendMM 99.62 31   LegendNANA
01:00 21.8 17.0 74   LegendMM LegendMM LegendMM 99.65 27   LegendNANA
02:00 20.5 14.7 69   LegendMM LegendMM LegendMM 99.65     LegendNANA
03:00 19.4 14.9 75   LegendMM LegendMM LegendMM 99.69     LegendNANA
04:00 18.8 15.3 80   LegendMM LegendMM LegendMM 99.72     LegendNANA
05:00 18.6 15.6 83   LegendMM LegendMM LegendMM 99.78     LegendNANA
06:00 18.8 15.9 83   LegendMM LegendMM LegendMM 99.87     LegendNANA
07:00 19.3 16.6 84   LegendMM LegendMM LegendMM 99.90     LegendNANA
08:00 19.9 16.3 80   LegendMM LegendMM LegendMM 99.97     LegendNANA
09:00 20.3 15.1 72   LegendMM LegendMM LegendMM 99.99     LegendNANA
10:00 20.9 15.3 70   LegendMM LegendMM LegendMM 100.06 25   LegendNANA
11:00 21.2 14.0 63   LegendMM LegendMM LegendMM 100.12 25   LegendNANA
12:00 20.9 12.7 59   LegendMM LegendMM LegendMM 100.17     LegendNANA
13:00 21.3 13.1 60   LegendMM LegendMM LegendMM 100.21     LegendNANA
14:00 20.4 13.4 64   LegendMM LegendMM LegendMM 100.29     LegendNANA
15:00 19.7 12.8 64   LegendMM LegendMM LegendMM 100.33     LegendNANA
16:00 19.6 12.3 63   LegendMM LegendMM LegendMM 100.38     LegendNANA
17:00 19.4 11.5 60   LegendMM LegendMM LegendMM 100.42     LegendNANA
18:00 19.2 11.2 60   LegendMM LegendMM LegendMM 100.47     LegendNANA
19:00 18.1 10.5 61   LegendMM LegendMM LegendMM 100.53     LegendNANA
20:00 17.4 8.9 57   LegendMM LegendMM LegendMM 100.59     LegendNANA
21:00 16.8 8.8 59   LegendMM LegendMM LegendMM 100.67     LegendNANA
22:00 16.2 8.9 62   LegendMM LegendMM LegendMM 100.74     LegendNANA
23:00 16.1 9.0 63   LegendMM LegendMM LegendMM 100.79     LegendNANA

Notes on Data Quality.

Legend

  • E = Estimated
  • M = Missing
  • NA = Not Available*
  • [empty] = Indicates an unobserved value
Date modified: